Regional Weather Roundup
Issued by NWS

Home | Current Version | Previous Version | Text Only | Print | Product List | Glossary Off
Versions: 1 2 3 4 5 6 7 8 9 10 11 12 13 14 15 16 17 18 19 20 21 22 23 24 25 26 27 28 29 30 31 32 33 34 35 36 37 38 39 40 41 42 43 44 45 46 47 48 49 50

000
ASUS43 KMKX 281859
RWRWI

WISCONSIN REGIONAL WEATHER ROUNDUP
NATIONAL WEATHER SERVICE MILWAUKEE/SULLIVAN WI
200 PM CDT SAT MAR 28 2015

NOTE: "FAIR" INDICATES FEW OR NO CLOUDS BELOW 12,000 FEET WITH NO
SIGNIFICANT WEATHER AND/OR OBSTRUCTIONS TO VISIBILITY.

WIZ001-002-006>008-014>016-023>028-282000-
NORTHWEST WISCONSIN

CITY           SKY/WX    TMP DP  RH WIND       PRES   REMARKS
SUPERIOR ARPT  MOSUNNY   43  11  27 W13G21    30.15F
ASHLAND        SUNNY     44   6  21 S13G21    30.15F
HAYWARD        SUNNY     38   8  29 SW9G21    30.16F WCI  31
SIREN          SUNNY     40   7  25 SW12      30.18F WCI  33
CUMBERLAND     SUNNY     37  10  32 S12       30.19F WCI  30
RICE LAKE      SUNNY     39   7  26 S7G17     30.21F WCI  34
CHETEK         SUNNY     39   9  28 S12       30.21F WCI  32
LADYSMITH      SUNNY     39  11  30 SW14G21   30.21F WCI  31
EAU CLAIRE     NOT AVBL
MENOMONIE      SUNNY     40   8  26 SW7       30.23F
NEW RICHMOND   SUNNY     39  10  29 S10G18    30.20F WCI  33
OSCEOLA        SUNNY     41  10  28 S9G16     30.22F
$$

WIZ003>005-009-010-017-018-282000-
NORTH CENTRAL WISCONSIN

CITY           SKY/WX    TMP DP  RH WIND       PRES   REMARKS
MANITOWISH WTR SUNNY     37   6  27 SW10G17   30.16F WCI  29
ARBOR VITAE    SUNNY     37   8  30 SW6       30.16F WCI  32
WOODRUFF       SUNNY     37   8  30 SW6       30.16F WCI  32
RHINELANDER    SUNNY     38   9  30 W9G17     30.17F WCI  31
EAGLE RIVER    SUNNY     35   3  25 W5G16     30.16F WCI  31
LAND O LAKES   SUNNY     37   1  21 SW9       30.16F WCI  30
PHILLIPS       SUNNY     37   9  32 S10       30.17F WCI  29
TOMAHAWK       SUNNY     36   8  31 CALM      30.19F
MEDFORD        SUNNY     33  12  41 S8        30.20F WCI  27
MERRILL        SUNNY     36  13  37 S10       30.22F WCI  29
$$

WIZ029-030-035-036-043>047-282000-
CENTRAL WISCONSIN

CITY           SKY/WX    TMP DP  RH WIND       PRES   REMARKS
WAUSAU         SUNNY     37   9  31 SW10      30.20F WCI  30
MOSINEE        SUNNY     36  10  35 W9        30.23F WCI  29
MARSHFIELD     SUNNY     39   7  26 S6        30.22F WCI  35
STEVENS POINT  SUNNY     35   7  30 W5        30.25F WCI  31
WAUPACA        SUNNY     41   7  24 E8        30.27F
WAUTOMA        NOT AVBL
WISC RAPIDS    SUNNY     39   1  20 S10G16    30.25F WCI  32
CAMP DOUGLAS   NOT AVBL
$$

WIZ011>013-019>022-031-037>040-048>050-282000-
NORTHEAST WISCONSIN

CITY           SKY/WX    TMP DP  RH WIND       PRES   REMARKS
ANTIGO         SUNNY     33  13  42 SW14      30.21F WCI  23
SHAWANO        SUNNY     38  12  34 SW8       30.26F WCI  32
OCONTO         SUNNY     34  16  47 S10       30.27F WCI  26
STURGEON BAY   SUNNY     34  10  37 SW7       30.29F WCI  28
GREEN BAY      SUNNY     35  19  52 SW10G16   30.28F WCI  27
MANITOWOC      NOT AVBL
APPLETON       MOSUNNY   36  10  35 SW7       30.27F WCI  30
CLINTONVILLE   SUNNY     36   9  32 SW7       30.26F WCI  30
OSHKOSH        SUNNY     37  12  35 VRB3      30.28F
$$

WIZ032>034-041-042-053>061-282000-
SOUTHWEST WISCONSIN

CITY           SKY/WX    TMP DP  RH WIND       PRES   REMARKS
LA CROSSE      SUNNY     40  10  29 S13       30.26F WCI  32
SPARTA         SUNNY     39   6  25 W3        30.27F
VIROQUA        SUNNY     35  13  41 S6        30.25F WCI  30
BOSCOBEL       SUNNY     38  14  37 MISG      30.30F
PRAIRIE DU CHI SUNNY     36  12  37 E7        30.29F WCI  30
PLATTEVILLE    SUNNY     36  14  40 SE8       30.29F WCI  30
$$

WIZ056-057-062-063-064-067-068-282000-
SOUTH CENTRAL WISCONSIN

CITY           SKY/WX    TMP DP  RH WIND       PRES   REMARKS
REEDSBURG      SUNNY     36  10  33 SW3G9     30.28F
BARABOO/DELLS  SUNNY     37   8  29 S7        30.27F WCI  32
LONE ROCK      NOT AVBL
MINERAL POINT  SUNNY     34  14  44 S3        30.29F
MADISON        MOSUNNY   35  10  35 VRB5      30.29F WCI  31
MIDDLETON      SUNNY     37   8  30 SE6       30.30S WCI  32
WATERTOWN      SUNNY     36  12  36 SW9       30.29F WCI  29
MONROE         SUNNY     34  14  44 CALM      30.29F
JANESVILLE     SUNNY     37   9  30 CALM      30.30F
$$

WIZ051-052-058>065-066-070>072-282000-
SOUTHEAST WISCONSIN

CITY           SKY/WX    TMP DP  RH WIND       PRES   REMARKS
MILWAUKEE      MOSUNNY   33  16  49 E12       30.32F WCI  24
WAUKESHA       MOSUNNY   34   9  35 N5        30.30F WCI  30
MILWAUKEE/TIMM SUNNY     36  16  44 SE8       30.31F WCI  29
RACINE         SUNNY     31  17  56 SE7       30.35S WCI  24
BURLINGTON     SUNNY     35  11  36 CALM      30.31S
KENOSHA        SUNNY     33  16  49 E8        30.32F WCI  26
FOND DU LAC    SUNNY     38  11  32 W9        30.28F WCI  31
SHEBOYGAN      SUNNY     35  13  40 CALM      30.29F
WEST BEND      SUNNY     36  10  35 SW3       30.29F
JUNEAU         SUNNY     35  10  36 SW6       30.29F WCI  29
$$

LSZ147-162-282000-
LAKE SUPERIOR

STATION/POSITION TIME  TEMP    WIND        PRES    WAVE
                       AIR SEA DIR/SP/G            HT/PER
                 (UTC) (F)     (DEG/KT/KT) (MB)    (FT/S)
DEVILS ISLAND    1800   33      60/  1/  3 1023.4F
PORT WING        1840   31     350/  4/  8 1021.7F
SAXON HARBOR     1840   34      60/  7/  9 1021.3F
$$

LMZ867-665-643>646-282000-
LAKE MICHIGAN

STATION/POSITION TIME  TEMP    WIND        PRES    WAVE
                       AIR SEA DIR/SP/G            HT/PER
                 (UTC) (F)     (DEG/KT/KT) (MB)    (FT/S)
NORTHPORT PIER   1800   27     140/ 10/ 12 1025.7F
KEWAUNEE LAKESHO 1800   27     170/ 12/ 13 1025.5F
SHEBOYGAN LAKESH 1800   27     140/  8/  9 1028.1F
PORT WASHINGTON  1840   30     160/  8/ 11 1027.4F
MILWAUKEE LAKESH 1800   27     110/  9/ 12   N/A
KENOSHA   LAKESH 1800   27     100/  8/  9 1027.8S
$$

TC  - TEMPERATURE IN CELSIUS
VSB - VISIBILITY IN STATUTE MILES
WCI - WIND CHILL INDEX
HX  - HEAT INDEX




USA.gov is the U.S. government's official web portal to all federal, state and local government web resources and services.